Torna al catalogo

STARLINK-5623

AttivoComunicazioniVLEO
NORAD 55405·PAYLOAD·🇺🇸 United States

Lanciato Jan 31, 2023 da Vandenberg Space Force Base

Loading…

Prossimi Passaggi (prossime 24 ore)

TLE

AggiornatoSource: CelesTrak SupGP

Epoca: Sep 14, 2026, 21:44 UTC

1 55405C 23014Q   26257.90604167  .00017525  00000+0  14688-2 0  2579
2 55405  70.0001 307.4139 0003578 268.1387 221.9654 14.98316790    12

Traccia STARLINK-5623 in tempo reale con AllMySat

Download on the App Store